Hourly Data Report for July 14, 2021

WINNIPEG A CS
MANITOBA
Current Station Operator: ECCC - MSC

49°55'00.000" N
97°14'58.000" W
238.70 m
502S001
71849
XWG

Download Data

Hourly Data (July 2021)
Hourly Data Report for July 14, 2021
TIME
LST
Temp Definition
°C
Dew Point Definition
°C
Rel Hum Definition
%
Precip. Amount Definition
mm

Wind Dir Definition
10's deg

Wind Spd Definition
km/h
Visibility Definition
km
Stn Press Definition
kPa
Hmdx Definition


Wind Chill Definition


Weather Definition


00:00 15.2 9.6 69 0.0 5 6   98.94     LegendNANA
01:00 15.2 10.1 72 0.0 5 5   98.95     LegendNANA
02:00 15.5 10.4 72 0.0 5 3   98.96     LegendNANA
03:00 14.3 10.1 76 0.0 29 4   98.98     LegendNANA
04:00 11.2 8.7 85 0.0 33 4   99.00     LegendNANA
05:00 11.4 8.9 85 0.0 30 6   98.98     LegendNANA
06:00 14.1 10.5 79 0.0 30 4   99.03     LegendNANA
07:00 18.4 11.1 62 0.0 3 5   99.02     LegendNANA
08:00 20.5 10.0 51 0.0 2 5   99.03     LegendNANA
09:00 22.1 9.9 46 0.0 4 3   99.04     LegendNANA
10:00 23.4 9.5 41 0.0 32 6   99.00     LegendNANA
11:00 24.8 7.9 34 0.0 1 6   98.97 25   LegendNANA
12:00 25.3 7.7 32 0.0 33 7   98.91 26   LegendNANA
13:00 25.9 8.4 33 0.0 12 3   98.87 26   LegendNANA
14:00 25.8 8.4 33 0.0 35 8   98.82 26   LegendNANA
15:00 27.7 7.9 29 0.0 30 6   98.77 28   LegendNANA
16:00 26.3 8.5 32 0.0 2 6   98.74 27   LegendNANA
17:00 26.9 8.9 32 0.0 3 5   98.70 28   LegendNANA
18:00 27.3 7.6 29 0.0 33 5   98.67 28   LegendNANA
19:00 26.2 9.3 35 0.0 26 4   98.68 27   LegendNANA
20:00 24.9 7.4 33 0.0 9 17   98.69 25   LegendNANA
21:00 22.8 7.6 38 0.0 11 15   98.69     LegendNANA
22:00 20.6 8.0 44 0.0 16 10   98.72     LegendNANA
23:00 19.4 10.9 58 0.0 17 10   98.72     LegendNANA

Notes on Data Quality.

Legend

  • E = Estimated
  • M = Missing
  • NA = Not Available*
  • [empty] = Indicates an unobserved value
Date modified: